Weather History for Sidney-Richland, MT

Change the Weather History Date:

Friday, November 11, 2011

  Actual Average Record
Temperature  
Mean Temperature 46 °F -  
Max Temperature 59 °F 39 °F 64 °F (1999)
Min Temperature 30 °F 18 °F -10 °F (1911)
Degree Days  
Heating Degree Days 19    
Moisture  
Dew Point 21 °F    
Average Humidity 39    
Maximum Humidity 60    
Minimum Humidity 20    
Precipitation  
Precipitation 0.00 in - - ()
Sea Level Pressure  
Sea Level Pressure 29.57 in    
Wind  
Wind Speed 15 mph (West)    
Max Wind Speed 22 mph    
Max Gust Speed 29 mph    
Visibility 10 miles    
Events      
Averages and records for this station are not official NWS values.
T = Trace of Precipitation, MM = Missing Value Source: NWS Daily Summary

Daily Weather History Graph

Daily Weather History Graph

Search for Another Location

Airport:

Trip Planner

Search our weather history database for the weather conditions in past years. The results will help you decide how hot, cold, wet, or windy it might be!

Date:

Astronomy

Nov. 11, 2011 Rise Set
Actual Time 6:55 AM MST 4:25 PM MST
Civil Twilight 6:22 AM MST 4:58 PM MST
Nautical Twilight 5:45 AM MST 5:35 PM MST
Astronomical Twilight 5:09 AM MST 6:11 PM MST
Moon 4:48 PM MST (11/11) 7:53 AM MST (11/11)
Length of Visible Light 10h 35m
Length of Day
9h 29m
Full, 99% of the Moon is Illuminated
Nov 11
Full
Nov 18
Last Quarter
Nov 24
New
Dec 2
First Quarter
Dec 10
Full

Hourly Weather History & Observations

Time (MST) Temp. Windchill Dew Point Humidity Pressure Visibility Wind Dir Wind Speed Gust Speed Precip Events Conditions
12:15 AM 42.8 °F 35.8 °F 23.0 °F 46% 29.67 in 10.0 mi West 13.8 mph - N/A   Clear
12:35 AM 42.8 °F 35.1 °F 23.0 °F 46% 29.66 in 10.0 mi West 16.1 mph - N/A   Clear
12:55 AM 42.8 °F 35.4 °F 23.0 °F 46% 29.66 in 10.0 mi West 15.0 mph - N/A   Clear
1:35 AM 42.8 °F 34.3 °F 23.0 °F 46% 29.66 in 10.0 mi West 19.6 mph 25.3 mph N/A   Clear
1:55 AM 42.8 °F 33.8 °F 23.0 °F 46% 29.66 in 10.0 mi West 21.9 mph 27.6 mph N/A   Clear
2:15 AM 44.6 °F 36.4 °F 23.0 °F 43% 29.66 in 10.0 mi West 20.7 mph - N/A   Clear
2:35 AM 42.8 °F 34.0 °F 23.0 °F 46% 29.66 in 10.0 mi WNW 20.7 mph - N/A   Clear
2:55 AM 42.8 °F 33.8 °F 23.0 °F 46% 29.66 in 10.0 mi WNW 21.9 mph 28.8 mph N/A   Clear
3:15 AM 41.0 °F 32.5 °F 23.0 °F 49% 29.65 in 10.0 mi WNW 17.3 mph 21.9 mph N/A   Clear
3:35 AM 41.0 °F 32.2 °F 23.0 °F 49% 29.65 in 10.0 mi WNW 18.4 mph 26.5 mph N/A   Clear
3:55 AM 41.0 °F 31.6 °F 23.0 °F 49% 29.65 in 10.0 mi West 20.7 mph 27.6 mph N/A   Clear
4:15 AM 39.2 °F 29.8 °F 23.0 °F 52% 29.65 in 10.0 mi WNW 18.4 mph 26.5 mph N/A   Clear
4:35 AM 39.2 °F 29.3 °F 23.0 °F 52% 29.65 in 10.0 mi West 20.7 mph 26.5 mph N/A   Clear
4:55 AM 39.2 °F 29.6 °F 23.0 °F 52% 29.65 in 10.0 mi WNW 19.6 mph - N/A   Clear
5:35 AM 39.2 °F 30.2 °F 23.0 °F 52% 29.64 in 10.0 mi West 17.3 mph - N/A   Clear
5:55 AM 39.2 °F 30.5 °F 23.0 °F 52% 29.64 in 9.0 mi West 16.1 mph 21.9 mph N/A   Clear
6:15 AM 41.0 °F 32.5 °F 23.0 °F 49% 29.64 in 10.0 mi West 17.3 mph - N/A   Clear
6:35 AM 42.8 °F 34.5 °F 23.0 °F 46% 29.64 in 10.0 mi West 18.4 mph - N/A   Clear
6:56 AM 41.0 °F 31.9 °F 23.0 °F 49% 29.63 in 10.0 mi West 19.6 mph 24.2 mph N/A   Clear
7:15 AM 41.0 °F 32.5 °F 23.0 °F 49% 29.63 in 10.0 mi West 17.3 mph - N/A   Clear
7:35 AM 42.8 °F 35.1 °F 23.0 °F 46% 29.63 in 10.0 mi West 16.1 mph - N/A   Clear
7:55 AM 42.8 °F 35.4 °F 23.0 °F 46% 29.63 in 10.0 mi West 15.0 mph 21.9 mph N/A   Clear
8:15 AM 44.6 °F 38.4 °F 24.8 °F 46% 29.63 in 10.0 mi West 12.7 mph - N/A   Clear
8:35 AM 46.4 °F 41.1 °F 23.0 °F 40% 29.63 in 10.0 mi West 11.5 mph - N/A   Clear
8:55 AM 46.4 °F 40.7 °F 21.2 °F 37% 29.63 in 10.0 mi West 12.7 mph - N/A   Clear
9:15 AM 48.2 °F - 21.2 °F 34% 29.63 in 10.0 mi West 13.8 mph 18.4 mph N/A   Clear
9:55 AM 51.8 °F - 23.0 °F 33% 29.61 in 10.0 mi West 13.8 mph - N/A   Clear
10:15 AM 53.6 °F - 21.2 °F 28% 29.61 in 10.0 mi West 12.7 mph 20.7 mph N/A   Clear
10:35 AM 53.6 °F - 23.0 °F 30% 29.60 in 10.0 mi West 12.7 mph - N/A   Clear
10:55 AM 55.4 °F - 21.2 °F 26% 29.59 in 10.0 mi West 15.0 mph - N/A   Clear
11:35 AM 57.2 °F - 19.4 °F 23% 29.57 in 10.0 mi West 12.7 mph - N/A   Clear
11:55 AM 57.2 °F - 19.4 °F 23% 29.57 in 10.0 mi SSW 10.4 mph - N/A   Clear
12:15 PM 57.2 °F - 19.4 °F 23% 29.56 in 10.0 mi WSW 12.7 mph 20.7 mph N/A   Clear
12:35 PM 57.2 °F - 17.6 °F 21% 29.55 in 10.0 mi WSW 17.3 mph - N/A   Clear
12:55 PM 59.0 °F - 17.6 °F 20% 29.54 in 10.0 mi West 13.8 mph 19.6 mph N/A   Clear
1:15 PM 57.2 °F - 17.6 °F 21% 29.53 in 10.0 mi West 9.2 mph - N/A   Clear
1:35 PM 59.0 °F - 17.6 °F 20% 29.52 in 10.0 mi WSW 13.8 mph - N/A   Clear
1:55 PM 59.0 °F - 17.6 °F 20% 29.51 in 10.0 mi SW 11.5 mph - N/A   Clear
2:15 PM 57.2 °F - 15.8 °F 20% 29.51 in 10.0 mi WSW 13.8 mph - N/A   Clear
2:35 PM 55.4 °F - 17.6 °F 23% 29.51 in 10.0 mi WSW 9.2 mph - N/A   Clear
2:55 PM 55.4 °F - 17.6 °F 23% 29.50 in 10.0 mi WSW 11.5 mph - N/A   Clear
3:35 PM 51.8 °F - 19.4 °F 28% 29.49 in 10.0 mi WSW 9.2 mph - N/A   Clear
3:55 PM 51.8 °F - 19.4 °F 28% 29.48 in 10.0 mi WSW 10.4 mph - N/A   Clear
4:15 PM 48.2 °F - 19.4 °F 32% 29.48 in 10.0 mi WSW 10.4 mph - N/A   Clear
4:35 PM 48.2 °F - 19.4 °F 32% 29.47 in 10.0 mi SW 11.5 mph - N/A   Clear
4:55 PM 46.4 °F 41.5 °F 19.4 °F 34% 29.47 in 9.0 mi SW 10.4 mph - N/A   Clear
5:15 PM 44.6 °F 39.2 °F 19.4 °F 37% 29.46 in 10.0 mi WSW 10.4 mph - N/A   Clear
5:35 PM 44.6 °F 39.2 °F 19.4 °F 37% 29.46 in 10.0 mi SW 10.4 mph - N/A   Clear
5:55 PM 37.4 °F 31.4 °F 17.6 °F 45% 29.45 in 10.0 mi SSW 8.1 mph - N/A   Clear
6:35 PM 39.2 °F 32.0 °F 21.2 °F 49% 29.44 in 10.0 mi SW 11.5 mph - N/A   Clear
6:55 PM 39.2 °F 32.0 °F 19.4 °F 45% 29.43 in 10.0 mi SW 11.5 mph - N/A   Clear
7:15 PM 37.4 °F 31.4 °F 19.4 °F 48% 29.43 in 10.0 mi SSW 8.1 mph - N/A   Clear
7:35 PM 35.6 °F 28.6 °F 19.4 °F 52% 29.42 in 10.0 mi SW 9.2 mph - N/A   Clear
7:55 PM 33.8 °F - 17.6 °F 52% 29.41 in 10.0 mi Calm Calm - N/A   Clear
8:15 PM 30.2 °F 25.4 °F 17.6 °F 60% 29.41 in 10.0 mi SW 4.6 mph - N/A   Clear
8:35 PM 30.2 °F 23.4 °F 19.4 °F 64% 29.41 in 10.0 mi SSW 6.9 mph - N/A   Clear
8:55 PM 30.2 °F 23.4 °F 19.4 °F 64% 29.40 in 10.0 mi South 6.9 mph - N/A   Clear
9:15 PM 30.2 °F 23.4 °F 19.4 °F 64% 29.40 in 10.0 mi South 6.9 mph - N/A   Clear
9:35 PM 30.2 °F 26.7 °F 19.4 °F 64% 29.40 in 10.0 mi SSW 3.5 mph - N/A   Clear
9:55 PM 28.4 °F 22.2 °F 17.6 °F 64% 29.38 in 10.0 mi South 5.8 mph - N/A   Clear
10:15 PM 26.6 °F 19.1 °F 17.6 °F 69% 29.38 in 10.0 mi South 6.9 mph - N/A   Clear
11:15 PM 26.6 °F - 15.8 °F 64% 29.37 in 10.0 mi Calm Calm - N/A   Clear
11:35 PM 26.6 °F 21.2 °F 17.6 °F 69% 29.36 in 10.0 mi South 4.6 mph - N/A   Clear
11:55 PM 26.6 °F 17.5 °F 19.4 °F 74% 29.35 in 10.0 mi South 9.2 mph - N/A   Clear